Voltar ao catálogo

CZ-4B R/B

AtivoSSO
NORAD 28059·ROCKET BODY·🇨🇳 China

Lançado Oct 21, 2003 de Taiyuan Satellite Launch Center

Loading…

Próximas Passagens (próximas 24 horas)

TLE

AtualizadoSource: Space-Track

Época: Sep 13, 2026, 22:26 UTC

1 28059U 03049C   26256.93519809  .00000265  00000-0  72260-4 0  9999
2 28059  98.6955 259.3404 0048468  18.5960 341.6993 14.55150656213979

Acompanhe CZ-4B R/B em tempo real com AllMySat

Download on the App Store